JST715 YMML-YSCB

Flight info

Callsign JST715
Flight time 0h 41m
Altitude 31000
Route ML H129 DOSEL Y59 ARRAN J42 CB
Aircraft A321/M-SDE3FGHIRWY/LB1

Departure

Time 2026-05-05 02:37
Airport Melbourne Airport (YMML)

Arrival

Time 2026-05-05 03:18
Airport Canberra Airport (YSCB)
Time Latitude Longitude Altitude Speed Heading
2026-05-05 02:27 -37.67201 144.84613 387 ft 3 kts 264°
2026-05-05 02:27 -37.67195 144.84595 387 ft 3 kts 324°
2026-05-05 02:27 -37.67184 144.84594 387 ft 2 kts 353°
2026-05-05 02:28 -37.67199 144.84598 387 ft 3 kts 288°
2026-05-05 02:28 -37.67200 144.84625 387 ft 3 kts 259°
2026-05-05 02:28 -37.67191 144.84638 387 ft 3 kts 209°
2026-05-05 02:28 -37.67185 144.84642 387 ft 1 kts 212°
2026-05-05 02:29 -37.67195 144.84629 387 ft 3 kts 234°
2026-05-05 02:29 -37.67202 144.84601 386 ft 3 kts 256°
2026-05-05 02:29 -37.67206 144.84572 386 ft 3 kts 262°
2026-05-05 02:29 -37.67209 144.84542 385 ft 3 kts 263°
2026-05-05 02:30 -37.67210 144.84535 385 ft 1 kts 263°
2026-05-05 02:32 -37.67210 144.84521 385 ft 3 kts 271°
2026-05-05 02:33 -37.67207 144.84485 385 ft 5 kts 279°
2026-05-05 02:33 -37.67200 144.84427 384 ft 8 kts 274°
2026-05-05 02:33 -37.67203 144.84347 383 ft 11 kts 260°
2026-05-05 02:33 -37.67258 144.84282 381 ft 13 kts 184°
2026-05-05 02:34 -37.67324 144.84291 379 ft 15 kts 170°
2026-05-05 02:34 -37.67439 144.84314 377 ft 18 kts 173°
2026-05-05 02:34 -37.67575 144.84339 373 ft 21 kts 171°
2026-05-05 02:34 -37.67738 144.84368 369 ft 15 kts 174°
2026-05-05 02:35 -37.67809 144.84348 368 ft 18 kts 202°
2026-05-05 02:35 -37.67863 144.84206 361 ft 20 kts 261°
2026-05-05 02:35 -37.67884 144.84043 359 ft 14 kts 261°
2026-05-05 02:35 -37.67867 144.83968 358 ft 9 kts 343°
2026-05-05 02:36 -37.67791 144.83952 358 ft 19 kts 352°
2026-05-05 02:36 -37.67416 144.83882 375 ft 90 kts 352°
2026-05-05 02:36 -37.66581 144.83723 401 ft 149 kts 349°
2026-05-05 02:36 -37.65474 144.83542 822 ft 164 kts 347°
2026-05-05 02:37 -37.64330 144.83333 1464 ft 169 kts 347°
2026-05-05 02:37 -37.63130 144.83037 2084 ft 180 kts 342°
2026-05-05 02:37 -37.61892 144.82652 2775 ft 187 kts 340°
2026-05-05 02:37 -37.60612 144.82229 3416 ft 199 kts 344°
2026-05-05 02:38 -37.59145 144.82168 3807 ft 227 kts 10°
2026-05-05 02:38 -37.57619 144.83053 4206 ft 257 kts 28°
2026-05-05 02:38 -37.55999 144.84177 5028 ft 270 kts 25°
2026-05-05 02:38 -37.54300 144.85255 5777 ft 277 kts 24°
2026-05-05 02:39 -37.52548 144.86321 6558 ft 282 kts 23°
2026-05-05 02:39 -37.50766 144.87391 7281 ft 287 kts 24°
2026-05-05 02:39 -37.48948 144.88483 8013 ft 292 kts 24°
2026-05-05 02:39 -37.47098 144.89595 8712 ft 297 kts 24°
2026-05-05 02:40 -37.45218 144.90745 9411 ft 304 kts 27°
2026-05-05 02:40 -37.43489 144.92315 10099 ft 311 kts 43°
2026-05-05 02:40 -37.42098 144.94423 10682 ft 319 kts 55°
2026-05-05 02:40 -37.40773 144.96782 10870 ft 342 kts 55°
2026-05-05 02:41 -37.39360 144.99296 11170 ft 359 kts 55°
2026-05-05 02:41 -37.37904 145.01882 11760 ft 365 kts 55°
2026-05-05 02:41 -37.36425 145.04502 12413 ft 369 kts 55°
2026-05-05 02:41 -37.34927 145.07148 13078 ft 373 kts 55°
2026-05-05 02:42 -37.33433 145.09782 13752 ft 377 kts 54°
2026-05-05 02:42 -37.31904 145.12479 14350 ft 381 kts 55°
2026-05-05 02:42 -37.30360 145.15198 14958 ft 384 kts 55°
2026-05-05 02:42 -37.28803 145.17940 15566 ft 387 kts 55°
2026-05-05 02:43 -37.27235 145.20697 16168 ft 390 kts 55°
2026-05-05 02:43 -37.25651 145.23482 16803 ft 393 kts 55°
2026-05-05 02:43 -37.24054 145.26288 17416 ft 397 kts 55°
2026-05-05 02:43 -37.22445 145.29116 18037 ft 400 kts 55°
2026-05-05 02:44 -37.20822 145.31965 18610 ft 403 kts 55°
2026-05-05 02:44 -37.19187 145.34835 19136 ft 406 kts 55°
2026-05-05 02:44 -37.17537 145.37724 19655 ft 409 kts 55°
2026-05-05 02:44 -37.15877 145.40635 20175 ft 412 kts 56°
2026-05-05 02:45 -37.14204 145.43567 20703 ft 415 kts 55°
2026-05-05 02:45 -37.12517 145.46519 21236 ft 418 kts 55°
2026-05-05 02:45 -37.10815 145.49487 21768 ft 421 kts 55°
2026-05-05 02:45 -37.09095 145.52474 22308 ft 424 kts 55°
2026-05-05 02:46 -37.07363 145.55483 22838 ft 427 kts 55°
2026-05-05 02:46 -37.05619 145.58514 23321 ft 431 kts 55°
2026-05-05 02:46 -37.03861 145.61567 23804 ft 434 kts 55°
2026-05-05 02:46 -37.02095 145.64634 24203 ft 437 kts 55°
2026-05-05 02:47 -37.00313 145.67725 24595 ft 439 kts 54°
2026-05-05 02:47 -36.98518 145.70832 24986 ft 442 kts 54°
2026-05-05 02:47 -36.96712 145.73954 25378 ft 444 kts 54°
2026-05-05 02:47 -36.94894 145.77092 25764 ft 447 kts 54°
2026-05-05 02:48 -36.93065 145.80248 26155 ft 450 kts 54°
2026-05-05 02:48 -36.91225 145.83424 26514 ft 452 kts 54°
2026-05-05 02:48 -36.89373 145.86616 26892 ft 455 kts 53°
2026-05-05 02:48 -36.87511 145.89829 27233 ft 458 kts 53°
2026-05-05 02:49 -36.85636 145.93062 27575 ft 461 kts 53°
2026-05-05 02:49 -36.83749 145.96312 27936 ft 463 kts 53°
2026-05-05 02:49 -36.81849 145.99576 28300 ft 466 kts 53°
2026-05-05 02:49 -36.79937 146.02856 28655 ft 468 kts 52°
2026-05-05 02:50 -36.78040 146.06108 28995 ft 471 kts 52°
2026-05-05 02:50 -36.76079 146.09470 29300 ft 475 kts 52°
2026-05-05 02:50 -36.74127 146.12807 29583 ft 478 kts 51°
2026-05-05 02:50 -36.72192 146.16112 29879 ft 481 kts 51°
2026-05-05 02:51 -36.70213 146.19485 30195 ft 483 kts 51°
2026-05-05 02:51 -36.68224 146.22875 30481 ft 486 kts 51°
2026-05-05 02:51 -36.66228 146.26280 30753 ft 488 kts 51°
2026-05-05 02:51 -36.64223 146.29699 31039 ft 490 kts 51°
2026-05-05 02:52 -36.62212 146.33124 31152 ft 487 kts 50°
2026-05-05 02:52 -36.60250 146.36469 31194 ft 471 kts 50°
2026-05-05 02:52 -36.58328 146.39742 31191 ft 466 kts 50°
2026-05-05 02:53 -36.54505 146.46220 31196 ft 463 kts 49°
2026-05-05 02:53 -36.50685 146.52668 31188 ft 463 kts 49°
2026-05-05 02:54 -36.46863 146.59110 31197 ft 463 kts 49°
2026-05-05 02:54 -36.43047 146.65540 31196 ft 462 kts 49°
2026-05-05 02:55 -36.39228 146.71967 31201 ft 462 kts 49°
2026-05-05 02:55 -36.35410 146.78379 31189 ft 462 kts 49°
2026-05-05 02:56 -36.31590 146.84792 31202 ft 462 kts 49°
2026-05-05 02:56 -36.27764 146.91188 31208 ft 462 kts 49°
2026-05-05 02:57 -36.23938 146.97575 31207 ft 461 kts 49°
2026-05-05 02:57 -36.20111 147.03953 31198 ft 461 kts 49°
2026-05-05 02:58 -36.16313 147.10274 31203 ft 460 kts 49°
2026-05-05 02:58 -36.12489 147.16622 31216 ft 460 kts 49°
2026-05-05 02:59 -36.08639 147.22998 31208 ft 459 kts 49°
2026-05-05 02:59 -36.04845 147.29262 31205 ft 458 kts 49°
2026-05-05 03:00 -36.01031 147.35562 31210 ft 457 kts 49°
2026-05-05 03:00 -35.99121 147.38711 31098 ft 460 kts 49°
2026-05-05 03:00 -35.97189 147.41888 30352 ft 464 kts 49°
2026-05-05 03:00 -35.95266 147.45054 29857 ft 459 kts 49°
2026-05-05 03:01 -35.93358 147.48198 29320 ft 455 kts 49°
2026-05-05 03:01 -35.91471 147.51306 28848 ft 450 kts 49°
2026-05-05 03:01 -35.89601 147.54376 28368 ft 445 kts 49°
2026-05-05 03:01 -35.87749 147.57409 27906 ft 440 kts 49°
2026-05-05 03:02 -35.85920 147.60440 27455 ft 447 kts 52°
2026-05-05 03:02 -35.84368 147.63896 26995 ft 476 kts 65°
2026-05-05 03:02 -35.83364 147.67880 26542 ft 497 kts 78°
2026-05-05 03:02 -35.82899 147.72121 26053 ft 502 kts 82°
2026-05-05 03:03 -35.82487 147.76387 25553 ft 500 kts 82°
2026-05-05 03:03 -35.82073 147.80633 25060 ft 497 kts 82°
2026-05-05 03:03 -35.81651 147.84839 24545 ft 493 kts 82°
2026-05-05 03:03 -35.81221 147.89009 24036 ft 489 kts 82°
2026-05-05 03:04 -35.80790 147.93146 23462 ft 485 kts 82°
2026-05-05 03:04 -35.80363 147.97241 22932 ft 481 kts 82°
2026-05-05 03:04 -35.79936 148.01320 22394 ft 477 kts 82°
2026-05-05 03:04 -35.79513 148.05359 21860 ft 473 kts 82°
2026-05-05 03:05 -35.79092 148.09362 21329 ft 469 kts 82°
2026-05-05 03:05 -35.78676 148.13328 20800 ft 465 kts 82°
2026-05-05 03:05 -35.78263 148.17259 20270 ft 461 kts 83°
2026-05-05 03:05 -35.77853 148.21155 19755 ft 457 kts 83°
2026-05-05 03:06 -35.77444 148.25023 19231 ft 454 kts 83°
2026-05-05 03:06 -35.77034 148.28861 18646 ft 451 kts 83°
2026-05-05 03:06 -35.76624 148.32681 17957 ft 447 kts 83°
2026-05-05 03:06 -35.76221 148.36440 17473 ft 441 kts 83°
2026-05-05 03:07 -35.75822 148.40169 16952 ft 437 kts 83°
2026-05-05 03:07 -35.75426 148.43860 16445 ft 433 kts 83°
2026-05-05 03:07 -35.75033 148.47518 15938 ft 429 kts 83°
2026-05-05 03:07 -35.74641 148.51147 15429 ft 426 kts 83°
2026-05-05 03:08 -35.74252 148.54740 15083 ft 424 kts 83°
2026-05-05 03:08 -35.73861 148.58322 14609 ft 421 kts 83°
2026-05-05 03:08 -35.73138 148.61790 14126 ft 418 kts 71°
2026-05-05 03:08 -35.72157 148.65145 13623 ft 415 kts 71°
2026-05-05 03:09 -35.71174 148.68467 13152 ft 411 kts 71°
2026-05-05 03:09 -35.70193 148.71754 12675 ft 407 kts 70°
2026-05-05 03:09 -35.69220 148.75001 12212 ft 403 kts 70°
2026-05-05 03:09 -35.68254 148.78213 11746 ft 398 kts 70°
2026-05-05 03:10 -35.67302 148.81392 11280 ft 394 kts 70°
2026-05-05 03:10 -35.66360 148.84537 10825 ft 390 kts 70°
2026-05-05 03:10 -35.65422 148.87648 10399 ft 386 kts 70°
2026-05-05 03:10 -35.64486 148.90733 9852 ft 385 kts 70°
2026-05-05 03:11 -35.63563 148.93793 8940 ft 374 kts 70°
2026-05-05 03:11 -35.62689 148.96762 8547 ft 370 kts 71°
2026-05-05 03:11 -35.61812 148.99749 8487 ft 372 kts 70°
2026-05-05 03:11 -35.60942 149.02704 8198 ft 373 kts 70°
2026-05-05 03:12 -35.60066 149.05671 7479 ft 365 kts 70°
2026-05-05 03:12 -35.59219 149.08509 6880 ft 342 kts 70°
2026-05-05 03:12 -35.58391 149.11124 6477 ft 316 kts 69°
2026-05-05 03:12 -35.57606 149.13507 6360 ft 286 kts 68°
2026-05-05 03:13 -35.56871 149.15660 6210 ft 262 kts 68°
2026-05-05 03:13 -35.56107 149.17621 6022 ft 251 kts 54°
2026-05-05 03:13 -35.54855 149.18964 5960 ft 236 kts 24°
2026-05-05 03:13 -35.53295 149.19458 5924 ft 231 kts 359°
2026-05-05 03:14 -35.51706 149.19427 5932 ft 229 kts 356°
2026-05-05 03:14 -35.50113 149.19452 5761 ft 228 kts 358°
2026-05-05 03:14 -35.48553 149.19433 5514 ft 216 kts 356°
2026-05-05 03:14 -35.47066 149.19430 5057 ft 214 kts 358°
2026-05-05 03:15 -35.45587 149.19447 4641 ft 209 kts 357°
2026-05-05 03:15 -35.44188 149.19446 4339 ft 199 kts 356°
2026-05-05 03:15 -35.42827 149.19440 4071 ft 190 kts 356°
2026-05-05 03:15 -35.41570 149.19426 3910 ft 173 kts 354°
2026-05-05 03:16 -35.40396 149.19426 3662 ft 166 kts 358°
2026-05-05 03:16 -35.39254 149.19439 3422 ft 163 kts 357°
2026-05-05 03:16 -35.38139 149.19444 3221 ft 155 kts 358°
2026-05-05 03:16 -35.37094 149.19446 3002 ft 147 kts 354°
2026-05-05 03:17 -35.36097 149.19434 2781 ft 140 kts 358°
2026-05-05 03:17 -35.35130 149.19444 2647 ft 138 kts 357°
2026-05-05 03:17 -35.34158 149.19449 2461 ft 141 kts 355°
2026-05-05 03:17 -35.33180 149.19455 2263 ft 141 kts 355°
2026-05-05 03:18 -35.32221 149.19454 2043 ft 139 kts 358°
2026-05-05 03:18 -35.31271 149.19444 1887 ft 135 kts 359°
2026-05-05 03:18 -35.30448 149.19442 1880 ft 99 kts
2026-05-05 03:18 -35.29921 149.19443 1880 ft 37 kts 360°
2026-05-05 03:19 -35.29583 149.19384 1880 ft 18 kts 288°
2026-05-05 03:19 -35.29603 149.19262 1879 ft 15 kts 219°
2026-05-05 03:19 -35.29706 149.19239 1877 ft 16 kts 182°
2026-05-05 03:20 -35.29821 149.19243 1880 ft 17 kts 180°
2026-05-05 03:20 -35.29945 149.19241 1876 ft 19 kts 180°
2026-05-05 03:20 -35.30033 149.19241 1877 ft 19 kts 179°
2026-05-05 03:20 -35.30150 149.19241 1878 ft 15 kts 183°
2026-05-05 03:21 -35.30262 149.19237 1880 ft 17 kts 178°
2026-05-05 03:21 -35.30371 149.19237 1880 ft 15 kts 180°
2026-05-05 03:21 -35.30479 149.19238 1877 ft 16 kts 179°
2026-05-05 03:21 -35.30587 149.19239 1880 ft 13 kts 181°
2026-05-05 03:22 -35.30642 149.19199 1880 ft 7 kts 264°
2026-05-05 03:22 -35.30639 149.19169 1880 ft 2 kts 268°
2026-05-05 03:22 -35.30648 149.19147 1880 ft 4 kts 239°
2026-05-05 03:22 -35.30665 149.19119 1877 ft 3 kts 231°
2026-05-05 03:23 -35.30676 149.19102 1877 ft 1 kts 231°
2026-05-05 03:23 -35.30682 149.19093 1880 ft 0 kts 231°